Location: Castle Hill Houses
(40.8186°N, 73.8497°W)
Time: 10:12:29
(UTC+00:00)

USA 238 - Pass Details

Date: 26 January 2020
Orbit: 1023 x 1189 km, 63.4° (Epoch: 10 February)

Event Time Altitude Azimuth Distance (km) Brightness Sun altitude
Rises 23:58:41 0° 196° (SSW) 3,753 6.9 -21.7°
Reaches altitude 10° 00:01:19 10° 192° (SSW) 2,811 6.1 -22.2°
Maximum altitude 00:07:42 53° 117° (ESE) 1,257 3.7 -23.4°
Enters shadow 00:08:57 47° 82° (E) 1,356 3.8 -23.6°
